Data supplied by UK-AIR on 31/3/2012
All Data GMT hour ending 
Status: R =Ratified P=Provisional,P*=As supplied
,,Sandy Roadside,,,,,,,,,,,,,,,,,,,,,,,
Date,time,"PM<sub>10</sub> particulate matter (Hourly measured)",status,unit,"Nitric oxide",status,unit,"Nitrogen dioxide",status,unit,"Nitrogen oxides as nitrogen dioxide",status,unit,"Non-volatile PM<sub>10</sub> (Hourly measured)",status,unit,"Non-volatile PM<sub>2.5</sub> (Hourly measured)",status,unit,"PM<sub>2.5</sub> particulate matter (Hourly measured)",status,unit,"Volatile PM<sub>10</sub> (Hourly measured)",status,unit,"Volatile PM<sub>2.5</sub> (Hourly measured)",status,unit
 
01-01-2011,01:00,,,,9,R,ugm-3,25,R,ugm-3,38,R,ugm-3,,,,,,,,,,,,,,,
01-01-2011,02:00,,,,13,R,ugm-3,31,R,ugm-3,50,R,ugm-3,,,,,,,,,,,,,,,
01-01-2011,03:00,,,,9,R,ugm-3,27,R,ugm-3,40,R,ugm-3,,,,,,,,,,,,,,,
01-01-2011,04:00,,,,5,R,ugm-3,19,R,ugm-3,27,R,ugm-3,,,,,,,,,,,,,,,
01-01-2011,05:00,,,,4,R,ugm-3,13,R,ugm-3,19,R,ugm-3,,,,,,,,,,,,,,,
01-01-2011,06:00,,,,5,R,ugm-3,10,R,ugm-3,17,R,ugm-3,,,,,,,,,,,,,,,
01-01-2011,07:00,,,,5,R,ugm-3,11,R,ugm-3,19,R,ugm-3,,,,,,,,,,,,,,,
01-01-2011,08:00,,,,6,R,ugm-3,19,R,ugm-3,29,R,ugm-3,,,,,,,,,,,,,,,
01-01-2011,09:00,,,,14,R,ugm-3,21,R,ugm-3,42,R,ugm-3,,,,,,,,,,,,,,,
01-01-2011,10:00,,,,19,R,ugm-3,19,R,ugm-3,48,R,ugm-3,,,,,,,,,,,,,,,
01-01-2011,11:00,,,,19,R,ugm-3,23,R,ugm-3,52,R,ugm-3,,,,,,,,,,,,,,,
01-01-2011,12:00,,,,24,R,ugm-3,29,R,ugm-3,65,R,ugm-3,,,,,,,,,,,,,,,
01-01-2011,13:00,,,,14,R,ugm-3,31,R,ugm-3,52,R,ugm-3,,,,,,,,,,,,,,,
01-01-2011,14:00,,,,4,R,ugm-3,13,R,ugm-3,19,R,ugm-3,,,,,,,,,,,,,,,
01-01-2011,15:00,,,,1,R,ugm-3,10,R,ugm-3,11,R,ugm-3,,,,,,,,,,,,,,,
01-01-2011,16:00,,,,4,R,ugm-3,17,R,ugm-3,23,R,ugm-3,,,,,,,,,,,,,,,
01-01-2011,17:00,,,,9,R,ugm-3,36,R,ugm-3,50,R,ugm-3,,,,,,,,,,,,,,,
01-01-2011,18:00,,,,20,R,ugm-3,46,R,ugm-3,76,R,ugm-3,,,,,,,,,,,,,,,
01-01-2011,19:00,,,,10,R,ugm-3,34,R,ugm-3,50,R,ugm-3,,,,,,,,,,,,,,,
01-01-2011,20:00,,,,14,R,ugm-3,38,R,ugm-3,59,R,ugm-3,,,,,,,,,,,,,,,
01-01-2011,21:00,,,,5,R,ugm-3,23,R,ugm-3,31,R,ugm-3,,,,,,,,,,,,,,,
01-01-2011,22:00,,,,3,R,ugm-3,21,R,ugm-3,25,R,ugm-3,,,,,,,,,,,,,,,
01-01-2011,23:00,,,,10,R,ugm-3,23,R,ugm-3,38,R,ugm-3,,,,,,,,,,,,,,,
01-01-2011,24:00,,,,1,R,ugm-3,15,R,ugm-3,17,R,ugm-3,,,,,,,,,,,,,,,
02-01-2011,01:00,,,,0,R,ugm-3,13,R,ugm-3,13,R,ugm-3,,,,,,,,,,,,,,,
02-01-2011,02:00,,,,0,R,ugm-3,8,R,ugm-3,8,R,ugm-3,,,,,,,,,,,,,,,
02-01-2011,03:00,,,,1,R,ugm-3,10,R,ugm-3,11,R,ugm-3,,,,,,,,,,,,,,,
02-01-2011,04:00,,,,3,R,ugm-3,13,R,ugm-3,17,R,ugm-3,,,,,,,,,,,,,,,
02-01-2011,05:00,,,,6,R,ugm-3,15,R,ugm-3,25,R,ugm-3,,,,,,,,,,,,,,,
02-01-2011,06:00,,,,10,R,ugm-3,19,R,ugm-3,34,R,ugm-3,,,,,,,,,,,,,,,
02-01-2011,07:00,,,,9,R,ugm-3,25,R,ugm-3,38,R,ugm-3,,,,,,,,,,,,,,,
02-01-2011,08:00,,,,24,R,ugm-3,38,R,ugm-3,74,R,ugm-3,,,,,,,,,,,,,,,
02-01-2011,09:00,,,,25,R,ugm-3,36,R,ugm-3,74,R,ugm-3,,,,,,,,,,,,,,,
02-01-2011,10:00,,,,18,R,ugm-3,36,R,ugm-3,63,R,ugm-3,,,,,,,,,,,,,,,
02-01-2011,11:00,,,,39,R,ugm-3,48,R,ugm-3,107,R,ugm-3,,,,,,,,,,,,,,,
02-01-2011,12:00,,,,39,R,ugm-3,50,R,ugm-3,109,R,ugm-3,,,,,,,,,,,,,,,
02-01-2011,13:00,,,,40,R,ugm-3,48,R,ugm-3,109,R,ugm-3,,,,,,,,,,,,,,,
02-01-2011,14:00,,,,34,R,ugm-3,52,R,ugm-3,103,R,ugm-3,,,,,,,,,,,,,,,
02-01-2011,15:00,,,,46,R,ugm-3,53,R,ugm-3,124,R,ugm-3,,,,,,,,,,,,,,,
02-01-2011,16:00,,,,45,R,ugm-3,65,R,ugm-3,134,R,ugm-3,,,,,,,,,,,,,,,
02-01-2011,17:00,,,,80,R,ugm-3,78,R,ugm-3,201,R,ugm-3,,,,,,,,,,,,,,,
02-01-2011,18:00,,,,59,R,ugm-3,76,R,ugm-3,166,R,ugm-3,,,,,,,,,,,,,,,
02-01-2011,19:00,,,,56,R,ugm-3,63,R,ugm-3,149,R,ugm-3,,,,,,,,,,,,,,,
02-01-2011,20:00,,,,54,R,ugm-3,63,R,ugm-3,145,R,ugm-3,,,,,,,,,,,,,,,
02-01-2011,21:00,,,,40,R,ugm-3,53,R,ugm-3,115,R,ugm-3,,,,,,,,,,,,,,,
02-01-2011,22:00,,,,21,R,ugm-3,50,R,ugm-3,82,R,ugm-3,,,,,,,,,,,,,,,
02-01-2011,23:00,,,,24,R,ugm-3,42,R,ugm-3,78,R,ugm-3,,,,,,,,,,,,,,,
02-01-2011,24:00,,,,21,R,ugm-3,34,R,ugm-3,67,R,ugm-3,,,,,,,,,,,,,,,
03-01-2011,01:00,,,,15,R,ugm-3,34,R,ugm-3,57,R,ugm-3,,,,,,,,,,,,,,,
03-01-2011,02:00,,,,23,R,ugm-3,34,R,ugm-3,69,R,ugm-3,,,,,,,,,,,,,,,
03-01-2011,03:00,,,,20,R,ugm-3,38,R,ugm-3,69,R,ugm-3,,,,,,,,,,,,,,,
03-01-2011,04:00,,,,16,R,ugm-3,38,R,ugm-3,63,R,ugm-3,,,,,,,,,,,,,,,
03-01-2011,05:00,,,,36,R,ugm-3,42,R,ugm-3,97,R,ugm-3,,,,,,,,,,,,,,,
03-01-2011,06:00,,,,45,R,ugm-3,44,R,ugm-3,113,R,ugm-3,,,,,,,,,,,,,,,
03-01-2011,07:00,,,,45,R,ugm-3,46,R,ugm-3,115,R,ugm-3,,,,,,,,,,,,,,,
03-01-2011,08:00,,,,53,R,ugm-3,53,R,ugm-3,134,R,ugm-3,,,,,,,,,,,,,,,
03-01-2011,09:00,,,,81,R,ugm-3,57,R,ugm-3,181,R,ugm-3,,,,,,,,,,,,,,,
03-01-2011,10:00,,,,55,R,ugm-3,52,R,ugm-3,136,R,ugm-3,,,,,,,,,,,,,,,
03-01-2011,11:00,,,,38,R,ugm-3,52,R,ugm-3,109,R,ugm-3,,,,,,,,,,,,,,,
03-01-2011,12:00,,,,45,R,ugm-3,59,R,ugm-3,128,R,ugm-3,,,,,,,,,,,,,,,
03-01-2011,13:00,,,,56,R,ugm-3,61,R,ugm-3,147,R,ugm-3,,,,,,,,,,,,,,,
03-01-2011,14:00,,,,45,R,ugm-3,59,R,ugm-3,128,R,ugm-3,,,,,,,,,,,,,,,
03-01-2011,15:00,,,,56,R,ugm-3,69,R,ugm-3,155,R,ugm-3,,,,,,,,,,,,,,,
03-01-2011,16:00,,,,80,R,ugm-3,84,R,ugm-3,206,R,ugm-3,,,,,,,,,,,,,,,
03-01-2011,17:00,,,,100,R,ugm-3,92,R,ugm-3,244,R,ugm-3,,,,,,,,,,,,,,,
03-01-2011,18:00,,,,44,R,ugm-3,67,R,ugm-3,134,R,ugm-3,,,,,,,,,,,,,,,
03-01-2011,19:00,,,,40,R,ugm-3,69,R,ugm-3,130,R,ugm-3,,,,,,,,,,,,,,,
03-01-2011,20:00,,,,64,R,ugm-3,74,R,ugm-3,172,R,ugm-3,,,,,,,,,,,,,,,
03-01-2011,21:00,,,,56,R,ugm-3,73,R,ugm-3,159,R,ugm-3,,,,,,,,,,,,,,,
03-01-2011,22:00,,,,73,R,ugm-3,78,R,ugm-3,189,R,ugm-3,,,,,,,,,,,,,,,
03-01-2011,23:00,,,,51,R,ugm-3,71,R,ugm-3,149,R,ugm-3,,,,,,,,,,,,,,,
03-01-2011,24:00,,,,31,R,ugm-3,67,R,ugm-3,115,R,ugm-3,,,,,,,,,,,,,,,
04-01-2011,01:00,,,,21,R,ugm-3,63,R,ugm-3,96,R,ugm-3,,,,,,,,,,,,,,,
04-01-2011,02:00,,,,26,R,ugm-3,55,R,ugm-3,96,R,ugm-3,,,,,,,,,,,,,,,
04-01-2011,03:00,,,,16,R,ugm-3,42,R,ugm-3,67,R,ugm-3,,,,,,,,,,,,,,,
04-01-2011,04:00,,,,26,R,ugm-3,38,R,ugm-3,78,R,ugm-3,,,,,,,,,,,,,,,
04-01-2011,05:00,,,,25,R,ugm-3,32,R,ugm-3,71,R,ugm-3,,,,,,,,,,,,,,,
04-01-2011,06:00,,,,68,R,ugm-3,53,R,ugm-3,157,R,ugm-3,,,,,,,,,,,,,,,
04-01-2011,07:00,,,,86,R,ugm-3,71,R,ugm-3,202,R,ugm-3,,,,,,,,,,,,,,,
04-01-2011,08:00,,,,78,R,ugm-3,69,R,ugm-3,187,R,ugm-3,,,,,,,,,,,,,,,
04-01-2011,09:00,,,,90,R,ugm-3,84,R,ugm-3,222,R,ugm-3,,,,,,,,,,,,,,,
04-01-2011,10:00,,,,86,R,ugm-3,76,R,ugm-3,208,R,ugm-3,,,,,,,,,,,,,,,
04-01-2011,11:00,,,,88,R,ugm-3,71,R,ugm-3,204,R,ugm-3,,,,,,,,,,,,,,,
04-01-2011,12:00,,,,65,R,ugm-3,59,R,ugm-3,159,R,ugm-3,,,,,,,,,,,,,,,
04-01-2011,13:00,,,,70,R,ugm-3,57,R,ugm-3,164,R,ugm-3,,,,,,,,,,,,,,,
04-01-2011,14:00,,,,61,R,ugm-3,53,R,ugm-3,147,R,ugm-3,,,,,,,,,,,,,,,
04-01-2011,15:00,,,,54,R,ugm-3,57,R,ugm-3,139,R,ugm-3,,,,,,,,,,,,,,,
04-01-2011,16:00,,,,60,R,ugm-3,59,R,ugm-3,151,R,ugm-3,,,,,,,,,,,,,,,
04-01-2011,17:00,,,,65,R,ugm-3,69,R,ugm-3,168,R,ugm-3,,,,,,,,,,,,,,,
04-01-2011,18:00,,,,56,R,ugm-3,65,R,ugm-3,151,R,ugm-3,,,,,,,,,,,,,,,
04-01-2011,19:00,,,,31,R,ugm-3,55,R,ugm-3,103,R,ugm-3,,,,,,,,,,,,,,,
04-01-2011,20:00,,,,11,R,ugm-3,38,R,ugm-3,55,R,ugm-3,,,,,,,,,,,,,,,
04-01-2011,21:00,,,,16,R,ugm-3,36,R,ugm-3,61,R,ugm-3,,,,,,,,,,,,,,,
04-01-2011,22:00,,,,20,R,ugm-3,32,R,ugm-3,63,R,ugm-3,,,,,,,,,,,,,,,
04-01-2011,23:00,,,,9,R,ugm-3,21,R,ugm-3,34,R,ugm-3,,,,,,,,,,,,,,,
04-01-2011,24:00,,,,8,R,ugm-3,17,R,ugm-3,29,R,ugm-3,,,,,,,,,,,,,,,
05-01-2011,01:00,,,,4,R,ugm-3,11,R,ugm-3,17,R,ugm-3,,,,,,,,,,,,,,,
05-01-2011,02:00,,,,4,R,ugm-3,11,R,ugm-3,17,R,ugm-3,,,,,,,,,,,,,,,
05-01-2011,03:00,,,,4,R,ugm-3,8,R,ugm-3,13,R,ugm-3,,,,,,,,,,,,,,,
05-01-2011,04:00,,,,6,R,ugm-3,11,R,ugm-3,21,R,ugm-3,,,,,,,,,,,,,,,
05-01-2011,05:00,,,,8,R,ugm-3,13,R,ugm-3,25,R,ugm-3,,,,,,,,,,,,,,,
05-01-2011,06:00,,,,20,R,ugm-3,31,R,ugm-3,61,R,ugm-3,,,,,,,,,,,,,,,
05-01-2011,07:00,,,,35,R,ugm-3,29,R,ugm-3,82,R,ugm-3,,,,,,,,,,,,,,,
05-01-2011,08:00,,,,39,R,ugm-3,50,R,ugm-3,109,R,ugm-3,,,,,,,,,,,,,,,
05-01-2011,09:00,,,,35,R,ugm-3,52,R,ugm-3,105,R,ugm-3,,,,,,,,,,,,,,,
05-01-2011,10:00,,,,29,R,ugm-3,40,R,ugm-3,84,R,ugm-3,,,,,,,,,,,,,,,
05-01-2011,11:00,,,,26,R,ugm-3,34,R,ugm-3,74,R,ugm-3,,,,,,,,,,,,,,,
05-01-2011,12:00,,,,24,R,ugm-3,32,R,ugm-3,69,R,ugm-3,,,,,,,,,,,,,,,
05-01-2011,13:00,,,,25,R,ugm-3,32,R,ugm-3,71,R,ugm-3,,,,,,,,,,,,,,,
05-01-2011,14:00,,,,28,R,ugm-3,36,R,ugm-3,78,R,ugm-3,,,,,,,,,,,,,,,
05-01-2011,15:00,,,,31,R,ugm-3,44,R,ugm-3,92,R,ugm-3,,,,,,,,,,,,,,,
05-01-2011,16:00,,,,35,R,ugm-3,44,R,ugm-3,97,R,ugm-3,,,,,,,,,,,,,,,
05-01-2011,17:00,,,,34,R,ugm-3,57,R,ugm-3,109,R,ugm-3,,,,,,,,,,,,,,,
05-01-2011,18:00,,,,30,R,ugm-3,50,R,ugm-3,96,R,ugm-3,,,,,,,,,,,,,,,
05-01-2011,19:00,,,,44,R,ugm-3,55,R,ugm-3,122,R,ugm-3,,,,,,,,,,,,,,,
05-01-2011,20:00,,,,48,R,ugm-3,52,R,ugm-3,124,R,ugm-3,,,,,,,,,,,,,,,
05-01-2011,21:00,,,,48,R,ugm-3,50,R,ugm-3,122,R,ugm-3,,,,,,,,,,,,,,,
05-01-2011,22:00,,,,34,R,ugm-3,36,R,ugm-3,88,R,ugm-3,,,,,,,,,,,,,,,
05-01-2011,23:00,,,,23,R,ugm-3,36,R,ugm-3,71,R,ugm-3,,,,,,,,,,,,,,,
05-01-2011,24:00,,,,26,R,ugm-3,38,R,ugm-3,78,R,ugm-3,,,,,,,,,,,,,,,
06-01-2011,01:00,,,,18,R,ugm-3,38,R,ugm-3,65,R,ugm-3,,,,,,,,,,,,,,,
06-01-2011,02:00,,,,20,R,ugm-3,31,R,ugm-3,61,R,ugm-3,,,,,,,,,,,,,,,
06-01-2011,03:00,,,,26,R,ugm-3,34,R,ugm-3,74,R,ugm-3,,,,,,,,,,,,,,,
06-01-2011,04:00,,,,53,R,ugm-3,40,R,ugm-3,120,R,ugm-3,,,,,,,,,,,,,,,
06-01-2011,05:00,,,,65,R,ugm-3,46,R,ugm-3,145,R,ugm-3,,,,,,,,,,,,,,,
06-01-2011,06:00,,,,76,R,ugm-3,61,R,ugm-3,178,R,ugm-3,,,,,,,,,,,,,,,
06-01-2011,07:00,,,,151,R,ugm-3,84,R,ugm-3,315,R,ugm-3,,,,,,,,,,,,,,,
06-01-2011,08:00,,,,183,R,ugm-3,96,R,ugm-3,374,R,ugm-3,,,,,,,,,,,,,,,
06-01-2011,09:00,,,,283,R,ugm-3,107,R,ugm-3,539,R,ugm-3,,,,,,,,,,,,,,,
06-01-2011,10:00,,,,224,R,ugm-3,92,R,ugm-3,434,R,ugm-3,,,,,,,,,,,,,,,
06-01-2011,11:00,,,,200,R,ugm-3,78,R,ugm-3,384,R,ugm-3,,,,,,,,,,,,,,,
06-01-2011,12:00,,,,,,,,,,,,,,,,,,,,,,,,,,,
06-01-2011,13:00,,,,118,R,ugm-3,78,R,ugm-3,258,R,ugm-3,,,,,,,,,,,,,,,
06-01-2011,14:00,,,,89,R,ugm-3,74,R,ugm-3,210,R,ugm-3,,,,,,,,,,,,,,,
06-01-2011,15:00,,,,120,R,ugm-3,82,R,ugm-3,265,R,ugm-3,,,,,,,,,,,,,,,
06-01-2011,16:00,,,,154,R,ugm-3,90,R,ugm-3,325,R,ugm-3,,,,,,,,,,,,,,,
06-01-2011,17:00,,,,125,R,ugm-3,97,R,ugm-3,288,R,ugm-3,,,,,,,,,,,,,,,
06-01-2011,18:00,,,,110,R,ugm-3,94,R,ugm-3,262,R,ugm-3,,,,,,,,,,,,,,,
06-01-2011,19:00,,,,150,R,ugm-3,103,R,ugm-3,332,R,ugm-3,,,,,,,,,,,,,,,
06-01-2011,20:00,,,,129,R,ugm-3,90,R,ugm-3,287,R,ugm-3,,,,,,,,,,,,,,,
06-01-2011,21:00,,,,89,R,ugm-3,82,R,ugm-3,218,R,ugm-3,,,,,,,,,,,,,,,
06-01-2011,22:00,,,,94,R,ugm-3,71,R,ugm-3,214,R,ugm-3,,,,,,,,,,,,,,,
06-01-2011,23:00,,,,94,R,ugm-3,71,R,ugm-3,214,R,ugm-3,,,,,,,,,,,,,,,
06-01-2011,24:00,,,,69,R,ugm-3,55,R,ugm-3,160,R,ugm-3,,,,,,,,,,,,,,,
07-01-2011,01:00,,,,163,R,ugm-3,55,R,ugm-3,304,R,ugm-3,,,,,,,,,,,,,,,
07-01-2011,02:00,,,,41,R,ugm-3,46,R,ugm-3,109,R,ugm-3,,,,,,,,,,,,,,,
07-01-2011,03:00,,,,3,R,ugm-3,44,R,ugm-3,48,R,ugm-3,,,,,,,,,,,,,,,
07-01-2011,04:00,,,,13,R,ugm-3,44,R,ugm-3,63,R,ugm-3,,,,,,,,,,,,,,,
07-01-2011,05:00,,,,6,R,ugm-3,32,R,ugm-3,42,R,ugm-3,,,,,,,,,,,,,,,
07-01-2011,06:00,,,,6,R,ugm-3,21,R,ugm-3,31,R,ugm-3,,,,,,,,,,,,,,,
07-01-2011,07:00,,,,3,R,ugm-3,17,R,ugm-3,21,R,ugm-3,,,,,,,,,,,,,,,
07-01-2011,08:00,,,,3,R,ugm-3,17,R,ugm-3,21,R,ugm-3,,,,,,,,,,,,,,,
07-01-2011,09:00,,,,20,R,ugm-3,34,R,ugm-3,65,R,ugm-3,,,,,,,,,,,,,,,
07-01-2011,10:00,,,,8,R,ugm-3,29,R,ugm-3,40,R,ugm-3,,,,,,,,,,,,,,,
07-01-2011,11:00,,,,10,R,ugm-3,31,R,ugm-3,46,R,ugm-3,,,,,,,,,,,,,,,
07-01-2011,12:00,,,,14,R,ugm-3,31,R,ugm-3,52,R,ugm-3,,,,,,,,,,,,,,,
07-01-2011,13:00,,,,18,R,ugm-3,32,R,ugm-3,59,R,ugm-3,,,,,,,,,,,,,,,
07-01-2011,14:00,,,,58,R,ugm-3,65,R,ugm-3,153,R,ugm-3,,,,,,,,,,,,,,,
07-01-2011,15:00,,,,60,R,ugm-3,67,R,ugm-3,159,R,ugm-3,,,,,,,,,,,,,,,
07-01-2011,16:00,,,,45,R,ugm-3,67,R,ugm-3,136,R,ugm-3,,,,,,,,,,,,,,,
07-01-2011,17:00,,,,71,R,ugm-3,78,R,ugm-3,187,R,ugm-3,,,,,,,,,,,,,,,
07-01-2011,18:00,,,,53,R,ugm-3,82,R,ugm-3,162,R,ugm-3,,,,,,,,,,,,,,,
07-01-2011,19:00,,,,20,R,ugm-3,59,R,ugm-3,90,R,ugm-3,,,,,,,,,,,,,,,
07-01-2011,20:00,,,,13,R,ugm-3,34,R,ugm-3,53,R,ugm-3,,,,,,,,,,,,,,,
07-01-2011,21:00,,,,9,R,ugm-3,25,R,ugm-3,38,R,ugm-3,,,,,,,,,,,,,,,
07-01-2011,22:00,,,,9,R,ugm-3,29,R,ugm-3,42,R,ugm-3,,,,,,,,,,,,,,,
07-01-2011,23:00,,,,6,R,ugm-3,29,R,ugm-3,38,R,ugm-3,,,,,,,,,,,,,,,
07-01-2011,24:00,,,,4,R,ugm-3,19,R,ugm-3,25,R,ugm-3,,,,,,,,,,,,,,,
08-01-2011,01:00,,,,1,R,ugm-3,17,R,ugm-3,19,R,ugm-3,,,,,,,,,,,,,,,
08-01-2011,02:00,,,,1,R,ugm-3,13,R,ugm-3,15,R,ugm-3,,,,,,,,,,,,,,,
08-01-2011,03:00,,,,1,R,ugm-3,13,R,ugm-3,15,R,ugm-3,,,,,,,,,,,,,,,
08-01-2011,04:00,,,,1,R,ugm-3,13,R,ugm-3,15,R,ugm-3,,,,,,,,,,,,,,,
08-01-2011,05:00,,,,1,R,ugm-3,11,R,ugm-3,13,R,ugm-3,,,,,,,,,,,,,,,
08-01-2011,06:00,,,,3,R,ugm-3,13,R,ugm-3,17,R,ugm-3,,,,,,,,,,,,,,,
08-01-2011,07:00,,,,3,R,ugm-3,15,R,ugm-3,19,R,ugm-3,,,,,,,,,,,,,,,
08-01-2011,08:00,,,,24,R,ugm-3,36,R,ugm-3,73,R,ugm-3,,,,,,,,,,,,,,,
08-01-2011,09:00,,,,25,R,ugm-3,29,R,ugm-3,67,R,ugm-3,,,,,,,,,,,,,,,
08-01-2011,10:00,,,,23,R,ugm-3,31,R,ugm-3,65,R,ugm-3,,,,,,,,,,,,,,,
08-01-2011,11:00,,,,23,R,ugm-3,34,R,ugm-3,69,R,ugm-3,,,,,,,,,,,,,,,
08-01-2011,12:00,,,,24,R,ugm-3,34,R,ugm-3,71,R,ugm-3,,,,,,,,,,,,,,,
08-01-2011,13:00,,,,23,R,ugm-3,29,R,ugm-3,63,R,ugm-3,,,,,,,,,,,,,,,
08-01-2011,14:00,,,,36,R,ugm-3,46,R,ugm-3,101,R,ugm-3,,,,,,,,,,,,,,,
08-01-2011,15:00,,,,29,R,ugm-3,32,R,ugm-3,76,R,ugm-3,,,,,,,,,,,,,,,
08-01-2011,16:00,,,,36,R,ugm-3,44,R,ugm-3,99,R,ugm-3,,,,,,,,,,,,,,,
08-01-2011,17:00,,,,51,R,ugm-3,63,R,ugm-3,141,R,ugm-3,,,,,,,,,,,,,,,
08-01-2011,18:00,,,,54,R,ugm-3,57,R,ugm-3,139,R,ugm-3,,,,,,,,,,,,,,,
08-01-2011,19:00,,,,38,R,ugm-3,44,R,ugm-3,101,R,ugm-3,,,,,,,,,,,,,,,
08-01-2011,20:00,,,,24,R,ugm-3,36,R,ugm-3,73,R,ugm-3,,,,,,,,,,,,,,,
08-01-2011,21:00,,,,14,R,ugm-3,27,R,ugm-3,48,R,ugm-3,,,,,,,,,,,,,,,
08-01-2011,22:00,,,,9,R,ugm-3,19,R,ugm-3,32,R,ugm-3,,,,,,,,,,,,,,,
08-01-2011,23:00,,,,10,R,ugm-3,17,R,ugm-3,32,R,ugm-3,,,,,,,,,,,,,,,
08-01-2011,24:00,,,,6,R,ugm-3,13,R,ugm-3,23,R,ugm-3,,,,,,,,,,,,,,,
09-01-2011,01:00,,,,4,R,ugm-3,10,R,ugm-3,15,R,ugm-3,,,,,,,,,,,,,,,
09-01-2011,02:00,,,,4,R,ugm-3,10,R,ugm-3,15,R,ugm-3,,,,,,,,,,,,,,,
09-01-2011,03:00,,,,3,R,ugm-3,8,R,ugm-3,11,R,ugm-3,,,,,,,,,,,,,,,
09-01-2011,04:00,,,,4,R,ugm-3,6,R,ugm-3,11,R,ugm-3,,,,,,,,,,,,,,,
09-01-2011,05:00,,,,6,R,ugm-3,6,R,ugm-3,15,R,ugm-3,,,,,,,,,,,,,,,
09-01-2011,06:00,,,,13,R,ugm-3,13,R,ugm-3,32,R,ugm-3,,,,,,,,,,,,,,,
09-01-2011,07:00,,,,9,R,ugm-3,13,R,ugm-3,27,R,ugm-3,,,,,,,,,,,,,,,
09-01-2011,08:00,,,,13,R,ugm-3,17,R,ugm-3,36,R,ugm-3,,,,,,,,,,,,,,,
09-01-2011,09:00,,,,15,R,ugm-3,17,R,ugm-3,40,R,ugm-3,,,,,,,,,,,,,,,
09-01-2011,10:00,,,,23,R,ugm-3,27,R,ugm-3,61,R,ugm-3,,,,,,,,,,,,,,,
09-01-2011,11:00,,,,24,R,ugm-3,34,R,ugm-3,71,R,ugm-3,,,,,,,,,,,,,,,
09-01-2011,12:00,,,,30,R,ugm-3,36,R,ugm-3,82,R,ugm-3,,,,,,,,,,,,,,,
09-01-2011,13:00,,,,34,R,ugm-3,34,R,ugm-3,86,R,ugm-3,,,,,,,,,,,,,,,
09-01-2011,14:00,,,,30,R,ugm-3,38,R,ugm-3,84,R,ugm-3,,,,,,,,,,,,,,,
09-01-2011,15:00,,,,34,R,ugm-3,40,R,ugm-3,92,R,ugm-3,,,,,,,,,,,,,,,
09-01-2011,16:00,,,,41,R,ugm-3,50,R,ugm-3,113,R,ugm-3,,,,,,,,,,,,,,,
09-01-2011,17:00,,,,60,R,ugm-3,82,R,ugm-3,174,R,ugm-3,,,,,,,,,,,,,,,
09-01-2011,18:00,,,,51,R,ugm-3,65,R,ugm-3,143,R,ugm-3,,,,,,,,,,,,,,,
09-01-2011,19:00,,,,48,R,ugm-3,55,R,ugm-3,128,R,ugm-3,,,,,,,,,,,,,,,
09-01-2011,20:00,,,,40,R,ugm-3,67,R,ugm-3,128,R,ugm-3,,,,,,,,,,,,,,,
09-01-2011,21:00,,,,20,R,ugm-3,53,R,ugm-3,84,R,ugm-3,,,,,,,,,,,,,,,
09-01-2011,22:00,,,,20,R,ugm-3,52,R,ugm-3,82,R,ugm-3,,,,,,,,,,,,,,,
09-01-2011,23:00,,,,14,R,ugm-3,44,R,ugm-3,65,R,ugm-3,,,,,,,,,,,,,,,
09-01-2011,24:00,,,,5,R,ugm-3,34,R,ugm-3,42,R,ugm-3,,,,,,,,,,,,,,,
10-01-2011,01:00,,,,4,R,ugm-3,34,R,ugm-3,40,R,ugm-3,,,,,,,,,,,,,,,
10-01-2011,02:00,,,,5,R,ugm-3,40,R,ugm-3,48,R,ugm-3,,,,,,,,,,,,,,,
10-01-2011,03:00,,,,4,R,ugm-3,46,R,ugm-3,52,R,ugm-3,,,,,,,,,,,,,,,
10-01-2011,04:00,,,,5,R,ugm-3,48,R,ugm-3,55,R,ugm-3,,,,,,,,,,,,,,,
10-01-2011,05:00,,,,9,R,ugm-3,55,R,ugm-3,69,R,ugm-3,,,,,,,,,,,,,,,
10-01-2011,06:00,,,,18,R,ugm-3,55,R,ugm-3,82,R,ugm-3,,,,,,,,,,,,,,,
10-01-2011,07:00,,,,48,R,ugm-3,67,R,ugm-3,139,R,ugm-3,,,,,,,,,,,,,,,
10-01-2011,08:00,,,,43,R,ugm-3,71,R,ugm-3,136,R,ugm-3,,,,,,,,,,,,,,,
10-01-2011,09:00,,,,30,R,ugm-3,57,R,ugm-3,103,R,ugm-3,,,,,,,,,,,,,,,
10-01-2011,10:00,,,,71,R,ugm-3,76,R,ugm-3,185,R,ugm-3,,,,,,,,,,,,,,,
10-01-2011,11:00,,,,76,R,ugm-3,80,R,ugm-3,197,R,ugm-3,,,,,,,,,,,,,,,
10-01-2011,12:00,,,,33,R,ugm-3,50,R,ugm-3,99,R,ugm-3,,,,,,,,,,,,,,,
10-01-2011,13:00,,,,30,R,ugm-3,44,R,ugm-3,90,R,ugm-3,,,,,,,,,,,,,,,
10-01-2011,14:00,,,,40,R,ugm-3,48,R,ugm-3,109,R,ugm-3,,,,,,,,,,,,,,,
10-01-2011,15:00,,,,35,R,ugm-3,50,R,ugm-3,103,R,ugm-3,,,,,,,,,,,,,,,
10-01-2011,16:00,,,,29,R,ugm-3,48,R,ugm-3,92,R,ugm-3,,,,,,,,,,,,,,,
10-01-2011,17:00,,,,29,R,ugm-3,48,R,ugm-3,92,R,ugm-3,,,,,,,,,,,,,,,
10-01-2011,18:00,,,,19,R,ugm-3,44,R,ugm-3,73,R,ugm-3,,,,,,,,,,,,,,,
10-01-2011,19:00,,,,13,R,ugm-3,40,R,ugm-3,59,R,ugm-3,,,,,,,,,,,,,,,
10-01-2011,20:00,,,,5,R,ugm-3,31,R,ugm-3,38,R,ugm-3,,,,,,,,,,,,,,,
10-01-2011,21:00,,,,4,R,ugm-3,27,R,ugm-3,32,R,ugm-3,,,,,,,,,,,,,,,
10-01-2011,22:00,,,,4,R,ugm-3,19,R,ugm-3,25,R,ugm-3,,,,,,,,,,,,,,,
10-01-2011,23:00,,,,3,R,ugm-3,19,R,ugm-3,23,R,ugm-3,,,,,,,,,,,,,,,
10-01-2011,24:00,,,,4,R,ugm-3,19,R,ugm-3,25,R,ugm-3,,,,,,,,,,,,,,,
11-01-2011,01:00,,,,3,R,ugm-3,15,R,ugm-3,19,R,ugm-3,,,,,,,,,,,,,,,
11-01-2011,02:00,,,,1,R,ugm-3,15,R,ugm-3,17,R,ugm-3,,,,,,,,,,,,,,,
11-01-2011,03:00,,,,1,R,ugm-3,11,R,ugm-3,13,R,ugm-3,,,,,,,,,,,,,,,
11-01-2011,04:00,,,,1,R,ugm-3,11,R,ugm-3,13,R,ugm-3,,,,,,,,,,,,,,,
11-01-2011,05:00,,,,3,R,ugm-3,17,R,ugm-3,21,R,ugm-3,,,,,,,,,,,,,,,
11-01-2011,06:00,,,,28,R,ugm-3,36,R,ugm-3,78,R,ugm-3,,,,,,,,,,,,,,,
11-01-2011,07:00,,,,73,R,ugm-3,76,R,ugm-3,187,R,ugm-3,,,,,,,,,,,,,,,
11-01-2011,08:00,,,,93,R,ugm-3,80,R,ugm-3,222,R,ugm-3,,,,,,,,,,,,,,,
11-01-2011,09:00,,,,115,R,ugm-3,111,R,ugm-3,287,R,ugm-3,,,,,,,,,,,,,,,
11-01-2011,10:00,,,,80,R,ugm-3,50,R,ugm-3,172,R,ugm-3,,,,,,,,,,,,,,,
11-01-2011,11:00,,,,28,R,ugm-3,31,R,ugm-3,73,R,ugm-3,,,,,,,,,,,,,,,
11-01-2011,12:00,,,,23,R,ugm-3,23,R,ugm-3,57,R,ugm-3,,,,,,,,,,,,,,,
11-01-2011,13:00,,,,30,R,ugm-3,38,R,ugm-3,84,R,ugm-3,,,,,,,,,,,,,,,
11-01-2011,14:00,,,,29,R,ugm-3,36,R,ugm-3,80,R,ugm-3,,,,,,,,,,,,,,,
11-01-2011,15:00,,,,39,R,ugm-3,38,R,ugm-3,97,R,ugm-3,,,,,,,,,,,,,,,
11-01-2011,16:00,,,,43,R,ugm-3,42,R,ugm-3,107,R,ugm-3,,,,,,,,,,,,,,,
11-01-2011,17:00,,,,49,R,ugm-3,53,R,ugm-3,128,R,ugm-3,,,,,,,,,,,,,,,
11-01-2011,18:00,,,,50,R,ugm-3,61,R,ugm-3,138,R,ugm-3,,,,,,,,,,,,,,,
11-01-2011,19:00,,,,55,R,ugm-3,63,R,ugm-3,147,R,ugm-3,,,,,,,,,,,,,,,
11-01-2011,20:00,,,,78,R,ugm-3,74,R,ugm-3,193,R,ugm-3,,,,,,,,,,,,,,,
11-01-2011,21:00,,,,65,R,ugm-3,71,R,ugm-3,170,R,ugm-3,,,,,,,,,,,,,,,
11-01-2011,22:00,,,,84,R,ugm-3,69,R,ugm-3,197,R,ugm-3,,,,,,,,,,,,,,,
11-01-2011,23:00,,,,20,R,ugm-3,55,R,ugm-3,86,R,ugm-3,,,,,,,,,,,,,,,
11-01-2011,24:00,,,,35,R,ugm-3,48,R,ugm-3,101,R,ugm-3,,,,,,,,,,,,,,,
12-01-2011,01:00,,,,14,R,ugm-3,38,R,ugm-3,59,R,ugm-3,,,,,,,,,,,,,,,
12-01-2011,02:00,,,,19,R,ugm-3,36,R,ugm-3,65,R,ugm-3,,,,,,,,,,,,,,,
12-01-2011,03:00,,,,8,R,ugm-3,25,R,ugm-3,36,R,ugm-3,,,,,,,,,,,,,,,
12-01-2011,04:00,,,,6,R,ugm-3,29,R,ugm-3,38,R,ugm-3,,,,,,,,,,,,,,,
12-01-2011,05:00,,,,4,R,ugm-3,27,R,ugm-3,32,R,ugm-3,,,,,,,,,,,,,,,
12-01-2011,06:00,,,,10,R,ugm-3,25,R,ugm-3,40,R,ugm-3,,,,,,,,,,,,,,,
12-01-2011,07:00,,,,33,R,ugm-3,40,R,ugm-3,90,R,ugm-3,,,,,,,,,,,,,,,
12-01-2011,08:00,,,,34,R,ugm-3,50,R,ugm-3,101,R,ugm-3,,,,,,,,,,,,,,,
12-01-2011,09:00,,,,65,R,ugm-3,71,R,ugm-3,170,R,ugm-3,,,,,,,,,,,,,,,
12-01-2011,10:00,,,,60,R,ugm-3,48,R,ugm-3,139,R,ugm-3,,,,,,,,,,,,,,,
12-01-2011,11:00,,,,54,R,ugm-3,48,R,ugm-3,130,R,ugm-3,,,,,,,,,,,,,,,
12-01-2011,12:00,,,,55,R,ugm-3,50,R,ugm-3,134,R,ugm-3,,,,,,,,,,,,,,,
12-01-2011,13:00,,,,79,R,ugm-3,63,R,ugm-3,183,R,ugm-3,,,,,,,,,,,,,,,
12-01-2011,14:00,,,,80,R,ugm-3,48,R,ugm-3,170,R,ugm-3,,,,,,,,,,,,,,,
12-01-2011,15:00,,,,111,R,ugm-3,80,R,ugm-3,250,R,ugm-3,,,,,,,,,,,,,,,
12-01-2011,16:00,,,,126,R,ugm-3,80,R,ugm-3,273,R,ugm-3,,,,,,,,,,,,,,,
12-01-2011,17:00,,,,74,R,ugm-3,69,R,ugm-3,181,R,ugm-3,,,,,,,,,,,,,,,
12-01-2011,18:00,,,,54,R,ugm-3,55,R,ugm-3,138,R,ugm-3,,,,,,,,,,,,,,,
12-01-2011,19:00,,,,46,R,ugm-3,55,R,ugm-3,126,R,ugm-3,,,,,,,,,,,,,,,
12-01-2011,20:00,,,,34,R,ugm-3,46,R,ugm-3,97,R,ugm-3,,,,,,,,,,,,,,,
12-01-2011,21:00,,,,20,R,ugm-3,25,R,ugm-3,55,R,ugm-3,,,,,,,,,,,,,,,
12-01-2011,22:00,,,,21,R,ugm-3,31,R,ugm-3,63,R,ugm-3,,,,,,,,,,,,,,,
12-01-2011,23:00,,,,19,R,ugm-3,36,R,ugm-3,65,R,ugm-3,,,,,,,,,,,,,,,
12-01-2011,24:00,,,,10,R,ugm-3,13,R,ugm-3,29,R,ugm-3,,,,,,,,,,,,,,,
13-01-2011,01:00,,,,11,R,ugm-3,10,R,ugm-3,27,R,ugm-3,,,,,,,,,,,,,,,
13-01-2011,02:00,,,,6,R,ugm-3,10,R,ugm-3,19,R,ugm-3,,,,,,,,,,,,,,,
13-01-2011,03:00,,,,10,R,ugm-3,11,R,ugm-3,27,R,ugm-3,,,,,,,,,,,,,,,
13-01-2011,04:00,,,,13,R,ugm-3,10,R,ugm-3,29,R,ugm-3,,,,,,,,,,,,,,,
13-01-2011,05:00,,,,19,R,ugm-3,17,R,ugm-3,46,R,ugm-3,,,,,,,,,,,,,,,
13-01-2011,06:00,,,,31,R,ugm-3,29,R,ugm-3,76,R,ugm-3,,,,,,,,,,,,,,,
13-01-2011,07:00,,,,46,R,ugm-3,36,R,ugm-3,107,R,ugm-3,,,,,,,,,,,,,,,
13-01-2011,08:00,,,,46,R,ugm-3,32,R,ugm-3,103,R,ugm-3,,,,,,,,,,,,,,,
13-01-2011,09:00,,,,45,R,ugm-3,40,R,ugm-3,109,R,ugm-3,,,,,,,,,,,,,,,
13-01-2011,10:00,,,,60,R,ugm-3,46,R,ugm-3,138,R,ugm-3,,,,,,,,,,,,,,,
13-01-2011,11:00,,,,41,R,ugm-3,42,R,ugm-3,105,R,ugm-3,,,,,,,,,,,,,,,
13-01-2011,12:00,,,,43,R,ugm-3,36,R,ugm-3,101,R,ugm-3,,,,,,,,,,,,,,,
13-01-2011,13:00,,,,39,R,ugm-3,36,R,ugm-3,96,R,ugm-3,,,,,,,,,,,,,,,
13-01-2011,14:00,,,,50,R,ugm-3,44,R,ugm-3,120,R,ugm-3,,,,,,,,,,,,,,,
13-01-2011,15:00,,,,44,R,ugm-3,42,R,ugm-3,109,R,ugm-3,,,,,,,,,,,,,,,
13-01-2011,16:00,,,,60,R,ugm-3,53,R,ugm-3,145,R,ugm-3,,,,,,,,,,,,,,,
13-01-2011,17:00,,,,85,R,ugm-3,69,R,ugm-3,199,R,ugm-3,,,,,,,,,,,,,,,
13-01-2011,18:00,,,,70,R,ugm-3,67,R,ugm-3,174,R,ugm-3,,,,,,,,,,,,,,,
13-01-2011,19:00,,,,60,R,ugm-3,55,R,ugm-3,147,R,ugm-3,,,,,,,,,,,,,,,
13-01-2011,20:00,,,,41,R,ugm-3,50,R,ugm-3,113,R,ugm-3,,,,,,,,,,,,,,,
13-01-2011,21:00,,,,35,R,ugm-3,34,R,ugm-3,88,R,ugm-3,,,,,,,,,,,,,,,
13-01-2011,22:00,,,,16,R,ugm-3,23,R,ugm-3,48,R,ugm-3,,,,,,,,,,,,,,,
13-01-2011,23:00,,,,11,R,ugm-3,11,R,ugm-3,29,R,ugm-3,,,,,,,,,,,,,,,
13-01-2011,24:00,,,,6,R,ugm-3,8,R,ugm-3,17,R,ugm-3,,,,,,,,,,,,,,,
14-01-2011,01:00,,,,15,R,ugm-3,13,R,ugm-3,36,R,ugm-3,,,,,,,,,,,,,,,
14-01-2011,02:00,,,,3,R,ugm-3,11,R,ugm-3,15,R,ugm-3,,,,,,,,,,,,,,,
14-01-2011,03:00,,,,4,R,ugm-3,6,R,ugm-3,11,R,ugm-3,,,,,,,,,,,,,,,
14-01-2011,04:00,,,,5,R,ugm-3,10,R,ugm-3,17,R,ugm-3,,,,,,,,,,,,,,,
14-01-2011,05:00,,,,13,R,ugm-3,13,R,ugm-3,32,R,ugm-3,,,,,,,,,,,,,,,
14-01-2011,06:00,,,,29,R,ugm-3,23,R,ugm-3,67,R,ugm-3,,,,,,,,,,,,,,,
14-01-2011,07:00,,,,43,R,ugm-3,44,R,ugm-3,109,R,ugm-3,,,,,,,,,,,,,,,
14-01-2011,08:00,,,,43,R,ugm-3,42,R,ugm-3,107,R,ugm-3,,,,,,,,,,,,,,,
14-01-2011,09:00,,,,39,R,ugm-3,40,R,ugm-3,99,R,ugm-3,,,,,,,,,,,,,,,
14-01-2011,10:00,,,,46,R,ugm-3,42,R,ugm-3,113,R,ugm-3,,,,,,,,,,,,,,,
14-01-2011,11:00,,,,54,R,ugm-3,42,R,ugm-3,124,R,ugm-3,,,,,,,,,,,,,,,
14-01-2011,12:00,,,,46,R,ugm-3,48,R,ugm-3,118,R,ugm-3,,,,,,,,,,,,,,,
14-01-2011,13:00,,,,53,R,ugm-3,46,R,ugm-3,126,R,ugm-3,,,,,,,,,,,,,,,
14-01-2011,14:00,,,,53,R,ugm-3,50,R,ugm-3,130,R,ugm-3,,,,,,,,,,,,,,,
14-01-2011,15:00,,,,56,R,ugm-3,55,R,ugm-3,141,R,ugm-3,,,,,,,,,,,,,,,
14-01-2011,16:00,,,,53,R,ugm-3,59,R,ugm-3,139,R,ugm-3,,,,,,,,,,,,,,,
14-01-2011,17:00,,,,51,R,ugm-3,52,R,ugm-3,130,R,ugm-3,,,,,,,,,,,,,,,
14-01-2011,18:00,,,,48,R,ugm-3,50,R,ugm-3,122,R,ugm-3,,,,,,,,,,,,,,,
14-01-2011,19:00,,,,34,R,ugm-3,44,R,ugm-3,96,R,ugm-3,,,,,,,,,,,,,,,
14-01-2011,20:00,,,,24,R,ugm-3,34,R,ugm-3,71,R,ugm-3,,,,,,,,,,,,,,,
14-01-2011,21:00,,,,21,R,ugm-3,31,R,ugm-3,63,R,ugm-3,,,,,,,,,,,,,,,
14-01-2011,22:00,,,,14,R,ugm-3,23,R,ugm-3,44,R,ugm-3,,,,,,,,,,,,,,,
14-01-2011,23:00,,,,15,R,ugm-3,23,R,ugm-3,46,R,ugm-3,,,,,,,,,,,,,,,
14-01-2011,24:00,,,,19,R,ugm-3,29,R,ugm-3,57,R,ugm-3,,,,,,,,,,,,,,,
15-01-2011,01:00,,,,13,R,ugm-3,31,R,ugm-3,50,R,ugm-3,,,,,,,,,,,,,,,
15-01-2011,02:00,,,,8,R,ugm-3,13,R,ugm-3,25,R,ugm-3,,,,,,,,,,,,,,,
15-01-2011,03:00,,,,4,R,ugm-3,13,R,ugm-3,19,R,ugm-3,,,,,,,,,,,,,,,
15-01-2011,04:00,,,,6,R,ugm-3,8,R,ugm-3,17,R,ugm-3,,,,,,,,,,,,,,,
15-01-2011,05:00,,,,9,R,ugm-3,13,R,ugm-3,27,R,ugm-3,,,,,,,,,,,,,,,
15-01-2011,06:00,,,,9,R,ugm-3,15,R,ugm-3,29,R,ugm-3,,,,,,,,,,,,,,,